Location: Newark
(31.5350°N, 35.0986°E)
Time: 16:19:55
(UTC+00:00)

SR - Pass Details

Date: 21 October 2019
Orbit: 574 x 882 km, 66.7° (Epoch: 17 November)

Event Time Altitude Azimuth Distance (km) Brightness Sun altitude
Rises 06:22:01 0° 311° (NW) 3,482 ? 29.3°
Reaches altitude 10° 06:25:40 10° 289° (WNW) 2,533 ? 30.0°
Maximum altitude 06:28:47 15° 257° (WSW) 2,191 ? 30.5°
Drops below altitude 10° 06:31:50 10° 225° (SW) 2,482 ? 31.0°
Sets 06:35:23 0° 202° (SSW) 3,368 ? 31.6°
